Weather History for Milford, UT

Change the Weather History Date:

Monday, May 5, 2014

  Actual Average Record
Temperature  
Mean Temperature 38 °F -  
Max Temperature 73 °F 68 °F 82 °F (1997)
Min Temperature 3 °F 34 °F 3 °F (2014)
Degree Days  
Heating Degree Days 27    
Moisture  
Dew Point 5 °F    
Average Humidity 22    
Maximum Humidity 100    
Minimum Humidity 4    
Precipitation  
Precipitation 0.00 in - - ()
Sea Level Pressure  
Sea Level Pressure 29.91 in    
Wind  
Wind Speed 18 mph (SSW)    
Max Wind Speed 34 mph    
Max Gust Speed 47 mph    
Visibility 5 miles    
Events      
Averages and records for this station are not official NWS values.
T = Trace of Precipitation, MM = Missing Value Source: NWS Daily Summary

Daily Weather History Graph

Daily Weather History Graph

Search for Another Location

Airport:

Trip Planner

Search our weather history database for the weather conditions in past years. The results will help you decide how hot, cold, wet, or windy it might be!

Date:

Astronomy

May. 05, 2014 Rise Set
Actual Time 6:30 AM MDT 8:27 PM MDT
Civil Twilight 6:01 AM MDT 8:56 PM MDT
Nautical Twilight 5:26 AM MDT 9:31 PM MDT
Astronomical Twilight 4:48 AM MDT 10:09 PM MDT
Moon 11:53 AM MDT (5/5) 1:14 AM MDT (5/5)
Length of Visible Light 14h 54m
Length of Day
13h 57m
Waxing Crescent, 37% of the Moon is Illuminated
May 5
Waxing Crescent
May 6
First Quarter
May 14
Full
May 21
Last Quarter
May 28
New

Hourly Weather History & Observations

Time (MDT) Temp. Dew Point Humidity Pressure Visibility Wind Dir Wind Speed Gust Speed Precip Events Conditions
12:52 AM - - N/A% 30.18 in - SSW 16.1 mph - N/A   Clear
1:52 AM - - N/A% 30.18 in - SSW 12.7 mph - N/A   Clear
2:52 AM - - N/A% 30.17 in - South 15.0 mph - N/A   Clear
3:52 AM - - N/A% 30.17 in - South 16.1 mph - N/A   Clear
4:52 AM - - N/A% 30.17 in - SSW 13.8 mph - N/A   Clear
5:52 AM - - N/A% 30.15 in - North - - N/A   Unknown
6:52 AM - - N/A% 29.91 in - SSW 12.7 mph - N/A   Clear
7:05 AM - - N/A% 29.92 in 1.2 mi SW 11.5 mph - N/A   Clear
7:52 AM - - N/A% 29.92 in 1.2 mi WSW 8.1 mph - N/A   Clear
8:52 AM - - N/A% 29.93 in 1.2 mi South 13.8 mph - N/A   Clear
9:52 AM - - N/A% 29.92 in 1.2 mi South 17.3 mph - N/A   Clear
10:52 AM - - N/A% 29.90 in 1.2 mi SSW 24.2 mph 34.5 mph N/A   Clear
11:52 AM - - N/A% 29.89 in 1.2 mi SSW 19.6 mph 27.6 mph N/A   Clear
12:19 PM - - N/A% 29.87 in - SSW 25.3 mph 35.7 mph N/A   Clear
12:46 PM - - N/A% 29.86 in 1.2 mi North - - N/A   Clear
12:52 PM - - N/A% 29.85 in 1.5 mi North - - N/A   Clear
1:52 PM - - N/A% 29.83 in 1.2 mi SSW 34.5 mph 42.6 mph N/A   Clear
2:04 PM - - N/A% 29.83 in 1.5 mi SSW 28.8 mph 39.1 mph N/A   Clear
2:39 PM - - N/A% 29.82 in 1.2 mi SW 29.9 mph 47.2 mph N/A   Clear
2:49 PM - - N/A% 29.82 in - SSW 29.9 mph 39.1 mph N/A   Clear
2:52 PM - - N/A% 29.81 in - SSW 26.5 mph 39.1 mph N/A   Clear
3:52 PM - - N/A% 29.79 in - SW 33.4 mph 42.6 mph N/A   Unknown
4:52 PM 73.9 °F 3.9 °F 7% 29.76 in 10.0 mi SW 29.9 mph 44.9 mph N/A   Clear
5:52 PM 72.0 °F 3.9 °F 7% 29.77 in 10.0 mi SW 31.1 mph 44.9 mph N/A   Clear
6:52 PM 72.0 °F -0.0 °F 6% 29.76 in 10.0 mi SSW 29.9 mph 40.3 mph N/A   Clear
7:52 PM 70.0 °F 3.9 °F 7% 29.75 in 10.0 mi SSW 19.6 mph 32.2 mph N/A   Clear
8:52 PM 62.6 °F 6.8 °F 11% 29.75 in 10.0 mi SSW 9.2 mph - N/A   Clear
9:52 PM 64.4 °F 5.0 °F 10% 29.74 in 10.0 mi SSW 16.1 mph 25.3 mph N/A   Clear
10:52 PM 55.0 °F 6.1 °F 14% 29.74 in 10.0 mi SSW 10.4 mph - N/A   Clear
11:52 PM 53.6 °F 12.2 °F 19% 29.72 in 10.0 mi SSW 10.4 mph - N/A   Clear